SCP
0 0 0 0 0 0 0 0 0 0 0 0 0 0 0 0 0 0 0 0 0 0 0 0 0 0 0 0 0 0 0 0 0 0 0 0 0 0 0 0 0 0 0 0
0 0 0 0 0 0 0 0 0 0 0 0 0 0 0 0 0 0 0 0 0 0 0 0 0 0 0 0 0 0 0 0 0 0 0 0 0 0 0 0 0 0 0 0
0 0 0 0 0 0 0 0 0 0 0 0 0 0 0 0 0 0 0 0 0 0 0 0 0 0 0 0 0 0 0 0 0 0 0 0 0 0 0 0 0 0 0 0
0 0 0 0 0 0 0 0 0 0 0 0 0 0 0 0 0 0 0 0 0 0 0 0 0 0 0 0 0 0 0 0 0 0 0 0 0 0 0 0 0 0 0 0
0 0 0 0 0 0 0 0 0 0 0 0 0 0 0 0 0 0 0 0 0 0 0 0 0 0 0 0 0 0 0 0 0 0 0 0 0 0 0 0 0 0 0 0
0 0 0 0 0 0 0 0 0 0 0 0 0 0 0 0 0 0 0 0 0 0 0 0 0 0 0 0 0 0 0 0 0 0 0 0 0 0 0 0 0 0 0 0
0 0 0 0 0 0 0 0 0 0 0 0 0 0 0 0 0 0 0 0 0 0 0 0 0 0 0 0 0 0 0 0 0 0 0 0 0 0 0 0 0 0 0 0
0 0 0 0 0 0 0 0 0 0 0 0 0 0 0 0 0 0 0 0 0 0 0 0 0 0 0 0 0 0 0 0 0 0 0 0 0 0 0 0 0 0 0 0
0 0 0 0 0 0 0 0 0 0 0 0 0 0 0 0 0 0 0 0 0 0 0 0 0 0 0 0 0 0 0 0 0 0 0 0 0 0 0 0 0 0 0 0
0 0 0 0 0 0 0 0 0 0 0 0 0 0 0 0 0 0 0 0 0 0 0 0 0 0 0 0 0 0 0 0 0 0 0 0 0 0 0 0 0 0 0 0
0 0 0 0 0 0 0 0 0 0 0 0 0 0 0 0 0 0 0 0 0 0 0 0 0 0 0 0 0 0 0 0 0 0 0 0 0 0 0 0 0 0 0 0
0 0 0 0 0 0 0 0 0 0 0 0 0 0 0 0 0 0 0 0 0 0 0 0 0 0 0 0 0 0 0 0 0 0 0 0 0 0 0 0 0 0 0 0
0 0 0 0 0 0 0 -0 0 0 0 0 0 0 0 0 0 0 0 0 0 0 0 0 0 0 0 0 0 0 0 0 0 0 0 0 0 0 0 0 0 0 0 0
0 0 0 0 0 0 0 -0 0 0 0 0 0 0 0 0 0 0 0 0 0 0 0 0 0 0 0 0 0 0 0 0 0 0 0 0 0 0 0 0 0 0 0 0
0 0 0 0 0 0 0 0 0 0 0 0 0 0 0 0 0 0 0 0 0 0 0 0 0 0 0 0 0 0 0 0 0 0 0 0 0 0 0 0 0 0 0 0
0 0 0 0 0 0 0 0 0 0 0 0 0 0 0 0 0 0 0 0 0 0 0 0 0 0 0 0 0 0 0 0 0 0 0 0 0 0 0 0 0 0 0 0
0 0 0 0 0 0 0 0 0 0 0 0 0 0 0 0 0 0 0 0 0 0 0 0 0 0 0 0 0 0 0 0 0 0 0 0 0 0 0 0 0 0 0 0
0 0 0 0 0 0 0 0 0 0 0 0 0 0 0 0 0 0 0 0 0 0 0 0 0 0 0 0 0 0 0 0 0 0 0 0 0 0 0 0 0 0 0 0
0 0 0 0 0 0 0 0 0 0 0 0 0 0 0 0 0 0 0 0 0 0 0 0 0 0 0 0 0 0 0 0 0 0 0 0 0 0 0 0 0 0 0 0
0 0 0 0 0 0 0 0 0 0 0 0 0 0 0 0 0 0 0 0 0 0 0 0 0 0 0 0 0 0 0 0 0 0 0 0 0 0 0 0 0 0 0 0
0 0 0 0 0 0 0 0 0 0 0 0 0 0 0 0 0 0 0 0 0 0 0 0 0 0 0 0 0 0 0 0 0 0 0 0 0 0 0 0 0 0 0 0
0 0 0 0 0 0 0 0 0 0 0 0 0 0 0 0 0 -0 0 0 0 0 0 0 0 0 0 0 0 0 0 0 0 0 0 0 0 0 0 0 0 0 0 0
0 0 0 0 0 0 0 0 0 0 0 0 0 0 0 0 0 -0 0 0 0 0 0 0 0 0 0 0 0 0 0 0 0 0 0 0 0 0 0 0 0 0 0 0
0 0 0 0 0 0 0 0 0 0 0 0 0 0 0 0 0 0 -0 0 0 0 0 0 0 0 0 0 0 0 0 0 0 0 0 0 0 0 0 0 0 0 0 0
0 0 0 0 0 0 0 0 0 0 0 0 0 0 0 0 0 -0 -0 -0 0 0 0 0 0 0 0 0 0 0 0 0 0 0 0 0 0 0 0 0 0 0 0 0
0 0 0 0 0 0 0 0 0 0 0 0 0 0 0 0 0 0 -0 -0 0 0 0 0 0 0 0 0 0 0 0 0 0 0 0 0 0 0 0 0 0 0 0 0
Wind_Speed
8 6 5 5 5 5 6 6 5 2 3 4 5 5 7 8 6 6 6 7 8 8 8 7 6 5 4 4 5 5 4 3 3 2 2 2 2 2 2 2 3 3 3 3
6 6 4 4 4 6 7 6 5 3 3 4 4 5 5 8 7 6 6 7 8 8 9 8 7 6 4 5 5 4 4 4 4 2 2 2 2 2 2 2 2 3 3 3
8 3 4 5 7 7 7 6 5 4 2 6 6 5 6 7 6 6 5 5 6 7 8 9 8 7 5 5 5 5 5 4 4 4 2 2 2 2 2 2 1 2 2 3
6 4 5 6 6 6 6 4 5 6 5 5 6 4 6 7 7 7 7 6 6 7 7 8 7 7 6 5 4 5 5 4 4 4 2 2 2 1 1 1 1 1 1 2
5 3 5 6 5 5 5 6 7 9 7 8 7 6 3 6 7 7 7 7 5 6 7 9 8 7 7 6 4 4 5 4 4 3 3 2 2 1 1 1 2 1 1 1
6 4 5 5 4 5 6 8 9 8 6 7 8 6 3 5 6 7 7 7 7 6 7 8 8 7 6 6 5 4 4 4 3 3 3 3 2 2 1 1 1 1 1 1
8 7 6 5 6 6 7 7 4 4 5 6 5 4 2 3 4 5 6 7 9 7 7 7 8 8 6 6 6 5 5 4 4 3 3 3 3 2 2 2 1 1 1 1
8 7 6 5 5 6 7 7 5 4 5 3 4 3 4 5 5 5 4 4 6 8 8 8 8 8 7 6 6 6 5 4 4 3 2 3 3 2 1 1 1 1 1 1
6 3 3 3 4 6 6 6 7 7 9 7 3 4 5 5 5 5 4 4 4 6 7 8 8 8 8 7 6 6 6 5 4 3 2 2 2 2 2 2 1 1 1 1
8 6 5 4 5 7 7 7 5 5 5 6 4 2 4 6 6 5 4 3 2 3 6 7 7 7 7 7 5 5 5 5 5 4 3 2 2 2 1 1 1 1 1 1
8 8 6 6 7 6 6 7 6 4 5 4 3 1 3 4 4 4 4 3 2 3 4 5 6 6 6 6 6 6 5 4 4 4 3 3 2 2 2 1 1 1 1 1
5 6 7 7 4 3 5 6 6 4 5 5 4 0 5 4 3 3 2 2 2 2 2 4 5 6 6 7 6 6 6 5 4 4 3 3 3 2 2 2 1 1 1 1
5 6 6 5 4 4 5 6 6 6 5 5 5 2 3 3 3 2 1 1 1 2 2 2 3 5 5 5 6 5 5 5 4 4 3 2 3 3 2 2 1 1 1 1
4 7 8 7 5 3 6 7 7 7 5 6 6 2 1 2 2 2 2 2 2 1 2 2 2 3 4 4 4 5 4 5 5 5 4 3 3 3 3 2 2 1 1 1
5 8 9 8 7 7 8 8 7 9 8 8 6 3 2 1 2 2 1 1 2 1 2 2 1 1 2 3 4 4 4 5 5 5 4 4 3 3 3 2 2 1 1 1
5 7 8 9 8 8 8 8 7 8 8 8 6 5 2 2 3 2 2 1 1 1 2 2 1 2 2 2 3 4 4 4 5 4 4 3 3 2 3 2 2 2 1 1
5 7 8 8 7 7 7 6 6 6 6 5 5 3 2 2 2 2 2 2 2 2 2 2 1 1 1 2 3 3 4 4 4 4 4 4 3 2 2 2 2 2 2 1
7 7 5 7 6 8 1 2 1 2 2 2 2 2 2 2 2 2 1 2 2 2 2 1 1 0 0 0 1 3 3 4 4 4 3 3 3 3 3 3 2 2 2 1
5 5 4 4 6 6 2 1 1 2 2 1 1 1 1 2 2 1 3 3 3 2 2 2 1 1 0 0 0 1 3 3 3 4 3 3 3 3 3 3 2 2 1 1
4 5 5 5 5 4 3 4 2 2 2 3 3 1 0 1 1 1 3 3 3 2 1 2 2 2 1 0 1 2 3 3 3 4 3 3 3 3 3 4 3 2 2 2
3 4 6 6 6 2 4 3 2 1 2 4 3 3 1 1 1 2 3 3 3 2 2 2 2 2 1 1 1 1 2 2 2 3 3 3 3 4 3 3 2 2 2 2
4 3 4 5 6 2 4 2 1 3 4 4 4 3 3 3 3 3 3 2 3 2 2 2 1 1 1 1 1 1 1 1 1 2 2 3 3 3 3 3 3 3 2 2
2 2 1 2 1 3 3 3 4 5 4 4 4 3 2 2 2 3 3 2 2 2 2 2 1 1 1 1 0 1 1 1 1 2 2 2 3 3 3 3 3 2 2 2
3 2 3 3 1 2 2 3 4 4 4 4 4 3 2 2 2 2 3 2 2 2 1 1 1 1 2 1 1 1 0 0 1 2 2 2 2 2 2 2 3 2 2 2
4 4 4 5 3 2 2 3 3 4 4 4 3 3 2 1 2 2 2 3 2 2 2 2 2 2 2 2 1 1 1 1 1 2 2 2 2 2 2 1 1 2 2 3
4 4 4 4 3 3 3 4 5 4 4 4 4 3 3 2 2 3 3 2 3 3 2 2 2 2 2 2 1 1 1 1 1 1 1 1 1 1 2 2 0 1 3 4
Wind_Direction
220 226 227 233 235 255 268 277 273 226 167 213 233 222 188 181 193 192 184 173 165 163 159 150 145 137 129 122 118 119 120 118 107 93 90 89 87 86 71 54 56 56 56 70
228 228 232 249 255 262 263 262 269 247 187 234 239 242 204 184 195 197 195 183 172 165 160 155 150 142 143 138 131 127 121 115 105 97 102 115 108 106 106 76 57 48 56 63
237 227 227 243 251 255 262 260 271 273 243 244 239 238 210 196 185 185 193 189 175 162 158 159 158 153 150 147 145 142 142 133 125 120 104 93 81 70 79 86 70 36 52 62
239 232 237 247 258 270 271 280 273 267 259 252 237 253 209 186 184 187 188 188 181 166 161 156 156 157 155 148 144 144 140 134 127 129 120 128 125 118 132 130 122 112 71 82
250 229 242 249 262 274 282 290 274 264 263 266 253 250 202 172 189 187 182 180 177 165 164 161 160 158 157 149 149 151 139 137 138 136 134 134 119 132 119 108 130 128 105 93
249 237 252 264 264 268 276 272 264 254 254 256 248 246 197 188 183 173 176 179 175 165 163 164 157 150 148 147 147 143 138 142 141 145 152 151 140 142 131 131 123 118 116 96
233 220 223 239 253 240 249 262 261 239 227 239 237 235 140 129 121 144 165 177 170 167 165 159 153 153 152 155 152 151 150 148 149 161 165 160 161 168 170 161 154 150 130 108
244 226 211 214 247 266 248 256 266 276 272 261 229 214 125 111 102 111 127 148 165 166 162 159 157 158 159 163 163 164 162 156 155 168 177 168 161 160 175 163 150 168 155 154
283 252 206 214 238 263 266 254 269 280 284 281 234 142 144 129 123 128 134 139 164 163 156 158 162 163 164 168 172 171 165 162 163 175 188 174 159 156 167 167 154 153 171 180
283 278 232 215 225 231 257 283 277 259 281 280 264 220 168 157 155 151 141 145 156 161 161 159 159 164 167 167 172 169 168 168 164 170 179 170 154 151 146 142 161 163 186 195
275 271 246 223 224 231 231 247 264 278 270 278 291 21 77 130 137 140 142 140 161 156 159 160 158 159 167 170 173 175 174 169 165 168 171 162 161 154 142 139 144 170 201 199
270 273 259 241 223 234 250 252 258 262 271 266 271 157 77 86 87 85 104 121 119 117 140 148 153 158 169 176 177 177 174 170 164 166 166 160 153 140 151 164 170 187 181 193
314 269 262 236 218 201 237 250 265 273 271 268 261 175 111 95 87 75 46 62 90 104 113 119 146 160 166 172 177 174 170 166 160 155 157 160 156 159 166 161 161 181 184 193
288 266 268 273 293 268 249 249 250 257 259 266 270 249 153 93 79 75 46 29 56 79 100 91 119 154 158 166 171 167 168 163 161 157 164 180 179 175 172 162 154 187 214 174
267 268 279 288 290 284 274 269 257 252 259 265 285 300 315 60 89 93 100 60 64 69 93 100 126 147 158 163 169 168 169 163 163 164 170 179 179 176 169 161 161 176 196 217
258 277 285 280 272 274 274 273 267 264 266 273 283 291 350 47 69 56 42 46 51 38 60 61 112 146 164 177 175 169 165 163 162 165 164 160 170 170 164 166 162 169 193 215
249 267 276 274 276 277 265 261 253 256 264 260 271 285 21 46 53 31 8 23 49 23 51 31 8 69 179 185 179 167 163 157 161 165 161 165 165 162 162 166 168 180 190 196
268 265 268 276 273 258 258 23 357 286 308 323 341 29 49 50 43 37 19 22 42 34 16 15 344 323 284 183 150 161 152 155 161 158 156 162 164 169 165 162 176 188 184 175
254 262 267 265 269 261 209 16 333 268 285 332 325 15 34 57 45 32 31 25 26 42 10 341 327 280 172 86 117 148 150 159 163 160 164 168 169 169 167 172 182 177 172 185
249 254 256 263 268 269 60 50 6 294 253 11 358 357 112 24 300 338 23 20 21 45 26 352 356 5 59 108 165 156 161 169 175 170 174 176 173 177 187 187 185 180 191 203
217 234 240 252 259 261 60 48 28 298 359 12 8 12 7 322 14 38 25 24 27 32 23 15 14 12 20 27 44 177 170 181 180 172 171 177 184 191 190 183 179 188 199 202
235 234 236 241 249 246 64 71 17 11 27 20 9 11 25 29 45 36 22 18 17 16 17 12 12 18 353 11 212 200 196 188 155 158 178 189 189 197 187 172 183 195 196 207
263 297 301 274 285 50 70 43 28 25 7 8 3 12 31 12 17 10 356 354 358 0 5 2 360 343 329 338 287 238 248 153 147 169 195 199 190 188 183 180 188 198 196 202
295 320 289 285 285 34 36 37 21 6 357 353 354 359 359 344 343 345 340 334 336 343 347 332 318 290 291 299 285 226 267 176 172 198 207 202 193 193 186 179 186 193 197 201
314 315 291 281 316 348 6 355 345 350 349 345 343 339 327 328 322 321 320 324 325 329 328 311 301 294 288 289 283 274 221 197 213 217 209 211 195 181 178 178 197 201 201 193
288 288 281 287 317 313 317 339 348 346 334 329 328 331 336 330 312 318 320 317 310 305 301 292 288 289 280 276 271 252 221 201 216 222 213 204 185 179 176 168 200 228 209 210